Погода в Иванове

Россия / Владимирская область     56°10′53″N   41°28′31″E
темп.,
°C
ветер,
м/с
пор.,
м/с
влажн.,
%
обл.,
%
осадки,
мм/ч
давл.,
гПа
погр.,
м
24 сентября, пт
пт2400:00+9юв3798100 0.5 1010410
03:00+9ююв3797100 1.6 1009320
06:00+8ююв3896100 0.1 1008346
09:00+9ююв498983 0.1 1008496
12:00+12ююз476536 0.2 10081163
15:00+11ю367094 0.6 1008547
18:00+9юв288425 0.3 1008293
21:00+7юв389310 0.3 1009175
25 сентября, сб
сб2500:00+6юв269538 0.0 1009111
03:00+7вюв2790100 0.0 1009174
06:00+7ююв269270 0.0 1009160
09:00+11ююв35695 0.0 1009311
12:00+13ююз354999 0.0 10091315
15:00+13ююз2558100 0.0 1009960
18:00+10ююв2274100 0.0 100917
21:00+8ю2686100 0.1 1009118
26 сентября, вс
вс2600:00+9ю2783100 0.0 1008248
03:00+8ююв2785100 0.0 1007220
06:00+8юв278796 0.1 1006273
09:00+9юв3784100 0.3 1006358
12:00+9в2688100 0.7 1007418
15:00+10всв2589100 1.0 1008296
18:00+9ссв3795100 0.3 1010296
21:00+9ссв41094100 0.6 1012415
27 сентября, пн
пн2700:00+8ссв499197 0.1 1014423
03:00+6с31094100 0.1 1016291
06:00+7с41094100 0.0 1017554
09:00+8с4993100 0.1 1018769
12:00+8ссв4893100 0.7 1020620
15:00+8ссв4890100 0.9 1022667
18:00+7св4892100 0.1 1024784
21:00+6св4793100 0.2 1025699
28 сентября, вт
вт2800:00+6св3793100 0.0 1027602
03:00+6св3693100 0.1 1028469
06:00+5ссв369521 0.0 1029319
09:00+6св368169 0.0 1031479
12:00+8в246985 0.0 1031828
15:00+10св235991 0.0 10311205
18:00+7с117238 0.0 103213
21:00+5ссв118367 0.0 103310